Location: Lecco
(45.8566°N, 9.3977°E)
Time: 22:42:27
(UTC+02:00)

OTV 5 (USA 277) - Pass Details

Date: 19 June 2019
Orbit: 299 x 335 km, 54.5° (Epoch: 13 July)

Event Time Altitude Azimuth Distance (km) Brightness Sun altitude
Exits shadow 22:10:56 - 85° (E) 1,881 ? -8.1°
Enters shadow 23:26:57 -26° 231° (SW) 6,229 ? -15.8°
Maximum altitude 23:41:53 76° 144° (SE) 349 ? -16.9°
